This demonstration page uses our WeatherBlox Daily Observations layout. Learn more.

Left ArrowRight Arrow

39.51506, -84.39828

Hourly Observations for August 8, 2016

Temp ( °F °C ) Dew Point ( °F °C ) Humidity (%) Winds ( mph kmh ) Pressure ( in mb ) Visibility ( mi km ) Precip ( " mm )
12:15 am 00:15 Clear 69 20.8 60 15.3 71 71 N N/A 29.97 1015 10 16 N/A
12:35 am 00:35 Clear 69 20.8 59 15 70 70 N 3 6 30.00 1016 10 16 N/A
12:55 am 00:55 Clear 71 21.5 59 14.9 66 66 N N/A 30.00 1016 10 16 N/A
1:15 am 01:15 Clear 69 20.8 58 14.5 67 67 N N/A 30.00 1016 10 16 N/A
1:35 am 01:35 Clear 71 21.4 58 14.3 64 64 N 5 7 30.00 1016 10 16 N/A
1:55 am 01:55 Clear 71 21.9 58 14.5 63 63 NNE 5 7 30.00 1016 10 16 N/A
2:15 am 02:15 Clear 69 20.8 56 13.6 64 64 N 3 6 30.00 1016 10 16 N/A
2:35 am 02:35 Clear 69 20.8 58 14.2 66 66 N 3 6 30.00 1016 10 16 N/A
2:55 am 02:55 Clear 69 20.8 57 14.1 66 66 N 3 6 30.00 1016 10 16 N/A
3:15 am 03:15 Clear 69 20.8 58 14.7 68 68 N 5 7 30.00 1016 10 16 N/A
3:35 am 03:35 Clear 69 20.8 57 14 65 65 N 3 6 29.97 1015 10 16 N/A
3:55 am 03:55 Clear 69 20.8 58 14.2 66 66 N 5 7 29.97 1015 10 16 N/A
4:15 am 04:15 Clear 69 20.8 57 13.7 64 64 N 5 7 29.97 1015 10 16 N/A
4:35 am 04:35 Clear 69 20.8 56 13.6 64 64 N 3 6 29.97 1015 10 16 N/A
4:55 am 04:55 Clear 69 20.8 57 13.9 65 65 N 3 6 29.97 1015 10 16 N/A
5:15 am 05:15 Clear 69 20.8 57 13.8 64 64 N 3 6 29.97 1015 10 16 N/A
5:35 am 05:35 Clear 69 20.4 57 13.7 66 66 N 3 6 30.00 1016 10 16 N/A
5:55 am 05:55 Clear 68 20.2 56 13.3 65 65 N 3 6 30.00 1016 10 16 N/A
6:15 am 06:15 Clear 69 20.8 57 14 65 65 N 3 6 30.00 1016 10 16 N/A
6:35 am 06:35 Clear 68 19.8 56 13.1 65 65 N 3 6 30.00 1016 10 16 N/A
6:55 am 06:55 Sunny 69 20.5 57 13.7 65 65 N 3 6 30.00 1016 10 16 N/A
7:15 am 07:15 Sunny 68 20.2 57 13.7 66 66 N 5 7 30.03 1017 10 16 N/A
7:35 am 07:35 Sunny 67 19.5 56 13.6 69 69 N 3 6 30.03 1017 10 16 N/A
7:55 am 07:55 Sunny 69 20.8 58 14.4 67 67 N 3 6 30.03 1017 10 16 N/A
8:15 am 08:15 Sunny 69 20.8 56 13.6 64 64 N 3 6 30.03 1017 10 16 N/A
8:35 am 08:35 Sunny 71 21.5 56 13.3 60 60 N 3 6 30.03 1017 10 16 N/A
8:55 am 08:55 Sunny 73 23 58 14.4 59 59 N 5 7 30.03 1017 10 16 N/A
9:15 am 09:15 Sunny 74 23.6 57 13.7 54 54 NE 5 7 30.03 1017 10 16 N/A
9:35 am 09:35 Sunny 74 23.6 54 12.4 50 50 NE 6 9 30.03 1017 10 16 N/A
9:55 am 09:55 Sunny 77 24.8 55 12.8 47 47 NE 7 11 30.03 1017 10 16 N/A
10:15 am 10:15 Sunny 77 25.1 53 11.5 43 43 NE 8 13 30.03 1017 10 16 N/A
10:35 am 10:35 Sunny 80 26.5 53 11.9 40 40 NNE 12 19 30.03 1017 10 16 N/A
10:55 am 10:55 Sunny 80 26.8 52 11.3 38 38 ENE 8 13 30.03 1017 10 16 N/A
11:15 am 11:15 Sunny 81 27.3 52 11.3 37 37 NE 8 13 30.03 1017 10 16 N/A
11:35 am 11:35 Sunny 82 28 52 10.9 34 34 NE 10 17 30.03 1017 10 16 N/A
11:55 am 11:55 Sunny 83 28.6 51 10.7 33 33 NE 9 15 29.97 1015 10 16 N/A
12:15 pm 12:15 Sunny 83 28.6 51 10.8 33 33 NNE 12 19 29.97 1015 10 16 N/A
12:35 pm 12:35 Sunny 87 30.3 52 10.9 30 30 ENE 5 7 29.97 1015 10 16 N/A
12:55 pm 12:55 Sunny 87 30.7 51 10.7 29 29 ENE 6 9 29.97 1015 10 16 N/A
1:15 pm 13:15 Sunny 90 32.1 53 11.4 28 28 NE 12 19 29.97 1015 10 16 N/A
1:35 pm 13:35 Sunny 90 32.1 52 11.1 27 27 E 7 11 29.97 1015 10 16 N/A
1:55 pm 13:55 Sunny 90 32.1 53 11.4 28 28 NE 12 19 29.97 1015 10 16 N/A
2:15 pm 14:15 Sunny 90 32.1 51 10.4 26 26 ENE 9 15 29.97 1015 10 16 N/A
2:35 pm 14:35 Partly Cloudy 90 32.1 49 9.5 25 25 NE 12 19 29.97 1015 10 16 N/A
2:55 pm 14:55 Partly Cloudy 90 32.1 49 9.7 25 25 ENE 12 19 29.94 1014 10 16 N/A
3:15 pm 15:15 Partly Cloudy 90 32.1 50 9.9 25 25 NE 10 17 29.94 1014 10 16 N/A
3:35 pm 15:35 Partly Cloudy 90 32.1 51 10.6 27 27 NE 8 13 29.94 1014 10 16 N/A
3:55 pm 15:55 Mostly Cloudy 90 32.1 51 10.5 26 26 NE 12 19 29.94 1014 10 16 N/A
4:15 pm 16:15 Mostly Cloudy 90 32.1 52 11.2 28 28 NE 8 13 29.94 1014 10 16 N/A
4:35 pm 16:35 Partly Cloudy 90 32.1 51 10.3 26 26 NE 10 17 29.94 1014 10 16 N/A
4:55 pm 16:55 Partly Cloudy 90 32.1 44 6.9 21 21 E 10 17 29.94 1014 10 16 N/A
5:15 pm 17:15 Sunny 90 32.1 45 7.2 21 21 ENE 9 15 29.91 1013 10 16 N/A
5:35 pm 17:35 Sunny 90 32.1 48 9 24 24 ENE 9 15 29.91 1013 10 16 N/A
5:55 pm 17:55 Sunny 90 32.1 52 11 27 27 NNE 5 7 29.91 1013 10 16 N/A
6:15 pm 18:15 Partly Cloudy 90 32.1 53 11.7 29 29 ENE 10 17 29.91 1013 10 16 N/A
6:35 pm 18:35 Partly Cloudy 90 32.1 53 11.8 29 29 E 10 17 29.91 1013 10 16 N/A
6:55 pm 18:55 Partly Cloudy 87 30.7 53 11.8 31 31 NE 9 15 29.91 1013 10 16 N/A
7:15 pm 19:15 Sunny 87 30.7 53 11.9 31 31 ENE 9 15 29.91 1013 10 16 N/A
7:35 pm 19:35 Sunny 84 29 52 11.3 33 33 ENE 7 11 29.91 1013 10 16 N/A
7:55 pm 19:55 Sunny 83 28.6 53 11.7 35 35 ENE 7 11 29.91 1013 10 16 N/A
8:15 pm 20:15 Sunny 82 28 55 12.8 39 39 NE 5 7 29.91 1013 10 16 N/A
8:35 pm 20:35 Sunny 81 27.2 56 13.2 42 42 NE 6 9 29.94 1014 10 16 N/A
8:55 pm 20:55 Clear 80 26.5 60 15.3 50 50 N N/A 29.94 1014 10 16 N/A
9:15 pm 21:15 Clear 77 25.1 61 16.1 57 57 N 3 6 29.94 1014 10 16 N/A
9:35 pm 21:35 Clear 77 25.1 60 15.6 56 56 N 3 6 29.97 1015 10 16 N/A
9:55 pm 21:55 Clear 75 24.1 60 15.5 59 59 N 3 6 29.97 1015 10 16 N/A
10:15 pm 22:15 Partly Cloudy 74 23.6 60 15.8 62 62 N N/A 29.97 1015 10 16 N/A
10:35 pm 22:35 Partly Cloudy 74 23.6 60 15.8 62 62 NNE 3 6 29.97 1015 10 16 N/A
10:55 pm 22:55 Partly Cloudy 74 23.6 62 16.7 65 65 N N/A 29.97 1015 10 16 N/A
11:15 pm 23:15 Partly Cloudy 74 23.6 63 17.3 68 68 NNW 3 6 29.97 1015 10 16 N/A
11:35 pm 23:35 Clear 74 23.6 61 16.2 63 63 N 3 6 29.97 1015 10 16 N/A
11:55 pm 23:55 Clear 74 23.6 62 16.6 65 65 N 3 6 29.97 1015 10 16 N/A

Powered by AerisWeather